Torna al catalogo

OBJECT F

AttivoSSO
NORAD 100134·UNKNOWN·🇨🇳 China

Lanciato Jul 22, 2026 da Yellow Sea Launch Area

Loading…

Prossimi Passaggi (prossime 24 ore)

TLE

AggiornatoSource: Space-Track

Epoca: Sep 14, 2026, 04:30 UTC

1 A0134U 26168F   26257.18803865  .00002849  00000-0  18016-3 0  9994
2 A0134  97.5409 338.0403 0020526 143.9404 216.3214 15.09651722  8167

Traccia OBJECT F in tempo reale con AllMySat

Download on the App Store